Weather History for Blue Canyon, CA

Change the Weather History Date:

Thursday, February 27, 2014

  Actual Average Record
Temperature  
Mean Temperature 38 °F -  
Max Temperature 42 °F 47 °F 70 °F (1986)
Min Temperature 33 °F 33 °F 7 °F (1962)
Degree Days  
Heating Degree Days 28    
Moisture  
Dew Point 32 °F    
Average Humidity 90    
Maximum Humidity 97    
Minimum Humidity 25    
Precipitation  
Precipitation 1.50 in - - ()
Sea Level Pressure  
Sea Level Pressure 29.82 in    
Wind  
Wind Speed 13 mph (South)    
Max Wind Speed 20 mph    
Max Gust Speed 38 mph    
Visibility 3 miles    
Events Fog , Rain , Snow    
Averages and records for this station are not official NWS values.
T = Trace of Precipitation, MM = Missing Value Source: NWS Daily Summary

Daily Weather History Graph

Daily Weather History Graph

Search for Another Location

Airport:

Trip Planner

Search our weather history database for the weather conditions in past years. The results will help you decide how hot, cold, wet, or windy it might be!

Date:

Astronomy

Feb. 27, 2014 Rise Set
Actual Time 6:38 AM PST 5:53 PM PST
Civil Twilight 6:11 AM PST 6:20 PM PST
Nautical Twilight 5:40 AM PST 6:51 PM PST
Astronomical Twilight 5:09 AM PST 7:22 PM PST
Moon 5:14 AM PST (2/27) 4:25 PM PST (2/27)
Length of Visible Light 12h 08m
Length of Day
11h 14m
Waning Crescent, 3% of the Moon is Illuminated
Feb 27
Waning Crescent
Mar 1
New
Mar 8
First Quarter
Mar 16
Full
Mar 23
Last Quarter

Hourly Weather History & Observations

Time (PST) Temp. Windchill Dew Point Humidity Pressure Visibility Wind Dir Wind Speed Gust Speed Precip Events Conditions
12:00 AM 37.9 °F 30.0 °F 36.0 °F 93% 29.73 in 5.0 mi SSE 12.7 mph 18.4 mph 0.03 in Rain Rain
12:14 AM 37.9 °F 27.9 °F 35.1 °F 89% 29.75 in 1.8 mi South 19.6 mph 38.0 mph 0.08 in Rain Heavy Rain
12:20 AM 37.9 °F 28.9 °F 36.0 °F 93% 29.75 in 0.8 mi South 16.1 mph 38.0 mph 0.11 in Rain Rain
12:29 AM 37.9 °F 28.5 °F 36.0 °F 93% 29.75 in 0.5 mi South 17.3 mph 25.3 mph 0.14 in Fog , Rain Light Rain
12:52 AM 37.9 °F 29.2 °F 36.0 °F 93% 29.72 in 0.8 mi South 15.0 mph 27.6 mph 0.19 in Rain Light Rain
1:52 AM 35.1 °F 26.4 °F 33.1 °F 92% 29.74 in 0.8 mi SW 12.7 mph 20.7 mph 0.16 in Rain Heavy Rain
1:58 AM 35.1 °F 25.9 °F 33.1 °F 92% 29.77 in 1.5 mi SSW 13.8 mph 19.6 mph 0.03 in Rain Heavy Rain
2:14 AM 35.1 °F 26.9 °F 34.0 °F 96% 29.77 in 0.8 mi SSW 11.5 mph 25.3 mph 0.07 in Rain Rain
2:28 AM 34.0 °F 23.0 °F 32.0 °F 92% 29.78 in 1.0 mi SSW 18.4 mph 27.6 mph 0.18 in Snow Light Snow
2:38 AM 33.1 °F 24.9 °F 32.0 °F 96% 29.78 in 0.8 mi SSW 10.4 mph 26.5 mph 0.22 in Snow Light Snow
2:52 AM 35.1 °F 25.5 °F 33.1 °F 92% 29.73 in 0.5 mi SW 15.0 mph 27.6 mph 0.23 in Fog , Rain Light Rain
2:59 AM 35.1 °F 24.5 °F 34.0 °F 96% 29.77 in 0.2 mi SW 18.4 mph 34.5 mph 0.00 in Fog Fog
3:30 AM 35.1 °F 25.2 °F 33.1 °F 92% 29.79 in 0.8 mi SSW 16.1 mph 34.5 mph 0.02 in Snow Light Snow
3:52 AM 35.1 °F 26.9 °F 33.1 °F 92% 29.75 in 0.8 mi SSW 11.5 mph 26.5 mph 0.05 in Rain Light Rain
4:52 AM 34.0 °F 26.0 °F 33.1 °F 96% 29.78 in 0.5 mi SSW 10.4 mph 21.9 mph 0.05 in Fog , Rain Light Rain
5:52 AM 34.0 °F 26.0 °F 33.1 °F 96% 29.80 in 0.5 mi SSW 10.4 mph 21.9 mph 0.02 in Fog , Snow Light Snow
5:59 AM 34.0 °F 26.0 °F 33.1 °F 96% 29.83 in 0.2 mi SSW 10.4 mph 19.6 mph 0.00 in Fog Fog
6:08 AM 33.1 °F 23.9 °F 32.0 °F 96% 29.83 in 0.5 mi South 12.7 mph 19.6 mph 0.00 in Fog , Snow Light Snow
6:19 AM 33.1 °F 23.9 °F 30.9 °F 92% 29.83 in 1.0 mi South 12.7 mph - 0.03 in Snow Light Snow
6:26 AM 33.1 °F 24.4 °F 32.0 °F 96% 29.84 in 0.2 mi South 11.5 mph 18.4 mph 0.03 in Fog , Snow Light Snow
6:42 AM 33.1 °F 26.1 °F 32.0 °F 96% 29.83 in 0.5 mi SSW 8.1 mph - 0.03 in Fog , Snow Snow
6:52 AM 33.1 °F 25.5 °F 30.9 °F 92% 29.81 in 0.5 mi South 9.2 mph - 0.05 in Fog , Snow Snow
7:04 AM 33.1 °F 24.9 °F 32.0 °F 96% 29.83 in 0.2 mi South 10.4 mph - 0.01 in Fog , Snow Light Snow
7:52 AM 34.0 °F 24.6 °F 32.0 °F 92% 29.82 in 0.2 mi South 13.8 mph - 0.07 in Fog , Snow Light Snow
8:52 AM 33.1 °F 21.5 °F 32.0 °F 96% 29.84 in 0.2 mi South 19.6 mph 26.5 mph 0.10 in Fog , Snow Light Snow
9:52 AM 34.0 °F 24.6 °F 33.1 °F 96% 29.84 in 0.2 mi South 13.8 mph - 0.08 in Fog , Snow Light Snow
10:52 AM 34.0 °F 23.0 °F 33.1 °F 96% 29.85 in 0.2 mi South 18.4 mph 25.3 mph 0.12 in Fog , Rain Rain
11:52 AM 35.1 °F 25.5 °F 34.0 °F 96% 29.86 in 0.2 mi South 15.0 mph 21.9 mph 0.09 in Fog , Rain Light Rain
12:27 PM 35.1 °F 25.9 °F 33.1 °F 92% 29.88 in 0.5 mi South 13.8 mph 23.0 mph 0.07 in Fog , Rain Rain
12:35 PM 35.1 °F 25.2 °F 34.0 °F 96% 29.88 in 0.2 mi South 16.1 mph 23.0 mph 0.09 in Fog , Rain Light Rain
12:52 PM 35.1 °F 24.5 °F 34.0 °F 96% 29.87 in 0.2 mi South 18.4 mph 34.5 mph 0.13 in Fog , Rain Light Rain
1:52 PM 36.0 °F 26.7 °F 35.1 °F 97% 29.88 in 0.2 mi South 15.0 mph 34.5 mph 0.05 in Fog , Rain Light Rain
2:43 PM 36.0 °F 26.0 °F 34.0 °F 93% 29.90 in 0.5 mi South 17.3 mph 26.5 mph 0.06 in Fog , Rain Light Rain
2:52 PM 35.1 °F 24.1 °F 34.0 °F 96% 29.90 in 0.5 mi South 19.6 mph 26.5 mph 0.08 in Fog , Rain Rain
3:09 PM 36.0 °F 26.7 °F 34.0 °F 93% 29.90 in 0.2 mi South 15.0 mph - 0.02 in Fog , Rain Light Rain
3:52 PM 37.0 °F 27.4 °F 35.1 °F 93% 29.87 in 0.2 mi South 17.3 mph 25.3 mph 0.03 in Fog Fog
4:27 PM 37.0 °F 27.4 °F 35.1 °F 93% 29.88 in 0.8 mi South 17.3 mph 23.0 mph N/A   Overcast
4:29 PM 37.0 °F 28.1 °F 35.1 °F 93% 29.88 in 1.5 mi South 15.0 mph 23.0 mph N/A   Overcast
4:42 PM 37.0 °F 29.3 °F 35.1 °F 93% 29.88 in 3.0 mi SSE 11.5 mph - N/A   Overcast
4:52 PM 37.0 °F 30.4 °F 35.1 °F 93% 29.87 in 6.0 mi SSE 9.2 mph 20.7 mph N/A   Overcast
5:06 PM 37.0 °F 28.9 °F 35.1 °F 93% 29.88 in 2.0 mi SSE 12.7 mph - N/A   Overcast
5:15 PM 37.0 °F 29.8 °F 35.1 °F 93% 29.88 in 10.0 mi South 10.4 mph - N/A   Overcast
5:41 PM 37.0 °F 32.4 °F 35.1 °F 93% 29.87 in 10.0 mi SE 5.8 mph - N/A   Overcast
5:52 PM 37.0 °F 33.3 °F 34.0 °F 89% 29.85 in 10.0 mi SE 4.6 mph - N/A   Overcast
6:04 PM 36.0 °F 31.1 °F 34.0 °F 93% 29.85 in 10.0 mi Variable 5.8 mph - N/A   Mostly Cloudy
6:39 PM 35.1 °F 31.0 °F 33.1 °F 92% 29.83 in 7.0 mi East 4.6 mph - N/A   Scattered Clouds
6:52 PM 35.1 °F 29.3 °F 33.1 °F 92% 29.83 in 10.0 mi East 6.9 mph - N/A   Partly Cloudy
7:52 PM 34.0 °F 28.8 °F 30.9 °F 89% 29.80 in 10.0 mi East 5.8 mph - N/A   Clear
8:52 PM 35.1 °F 31.0 °F 28.9 °F 78% 29.77 in 10.0 mi ENE 4.6 mph - N/A   Clear
9:52 PM 39.9 °F 36.7 °F 16.0 °F 38% 29.71 in 10.0 mi East 4.6 mph - N/A   Clear
10:52 PM 42.1 °F 39.2 °F 8.1 °F 25% 29.71 in 10.0 mi SSE 4.6 mph - N/A   Partly Cloudy
11:52 PM 39.9 °F 37.8 °F 12.9 °F 33% 29.70 in 10.0 mi ESE 3.5 mph - N/A   Partly Cloudy